Location: Te Maire Creek
(41.1333°S, 175.9167°E)
Time: 21:36:31
(UTC+00:00)

Cosmos 1980 Rocket - Pass Details

Date: 19 May 2024
Orbit: 827 x 851 km, 71.0° (Epoch: 21 June)

Event Time Altitude Azimuth Distance (km) Brightness Sun altitude
Exits shadow 18:01:40 13° 215° (SW) 2,274 4.0 -15.0°
Drops below altitude 10° 18:03:22 10° 197° (SSW) 2,473 4.3 -14.7°
Sets 18:07:19 0° 170° (S) 3,410 5.3 -14.0°
